FENGYUN 3D (43010 NORAD) Tracking and Keplerian Element Data

This shows tracking and keplerian element data for the satellite.

Feedback or suggestion? Click here.




ElementValue
Catalog43010
NameFENGYUN 3D
Epoch Orbit3439
Epoch Day196.0877547
Epoch Year2018
RAAN136.3566
Inclination98.677
Eccentricity0.0001246
Argument of Perigee352.6871
Mean Anonmoly7.4291
Mean Motion14.19700269
Decay Rate-1.2E-07
L11 43010U 17072A 18196.08775470 -.00000012 00000-0 14677-4 0 9991
L22 43010 98.6770 136.3566 0001246 352.6871 7.4291 14.19700269 34393

Live tracking and technical data element details for FENGYUN 3D (NORAD 43010). FENGYUN 3D can be tracked NOW for your location showing map with azimuth and elevation plus other details from your city location.

Track the satellite on the map from your city or location and see movement details for azimuth, elevation, latitude, longitude, range, height, and movement on the map or in text.







IsCatalogInMostPopularTable: catalog: 43010, numindb: 103
Update: records affected: 1



GetName: 43010 FENGYUN 3D

Hit Count: updated at: Sun, 15 Jul 2018 22:56:34 GMT